Temperature
19 18 18 18 18 18 18 18 18 18 17 17 18 18 18 18 18 18 18 18 18 18 18 18 18 18 18 18 17 17 17 17 17 17 17 17 17 17 17 17 17 17 17
18 18 18 18 18 18 18 17 17 17 17 17 17 17 17 17 18 18 18 18 18 18 18 18 18 18 18 18 18 18 17 17 17 17 17 17 17 17 17 17 16 16 16
18 18 18 18 18 18 17 17 17 17 17 17 17 17 17 17 17 17 17 17 18 18 18 18 18 18 18 18 18 18 18 17 17 17 17 17 17 17 17 16 16 16 16
18 18 18 18 18 17 17 17 17 17 17 17 17 17 17 17 17 17 17 17 17 17 18 18 18 18 18 18 18 18 18 17 17 17 17 17 17 17 17 17 16 16 16
17 17 18 18 18 17 17 17 17 17 16 16 16 16 16 16 16 16 17 17 17 17 17 17 18 18 18 18 18 18 18 18 17 17 17 17 17 17 17 17 17 16 16
17 17 17 18 18 17 17 17 17 16 16 16 16 16 16 16 17 17 17 16 17 17 17 17 17 18 18 18 18 18 18 18 18 18 17 17 17 17 17 17 17 16 16
17 17 17 17 18 18 17 17 17 16 16 16 16 16 16 17 17 16 16 16 16 16 17 17 17 17 17 18 18 18 18 18 18 18 18 17 17 17 17 17 17 17 16
17 17 17 18 18 18 18 17 17 17 16 16 16 16 16 16 16 16 16 16 16 16 16 17 17 17 17 18 18 18 18 18 18 17 17 17 17 17 17 17 17 17 17
17 17 17 17 18 18 18 18 17 17 17 16 16 16 16 16 16 16 16 16 16 16 16 17 17 17 17 18 18 18 18 18 17 17 17 18 17 17 17 17 17 17 17
16 17 17 17 17 17 17 17 17 17 17 16 16 16 16 15 15 15 15 16 15 16 16 16 17 17 17 17 18 17 18 17 17 17 17 17 17 17 17 17 17 17 17
16 16 16 16 16 16 17 17 17 17 17 16 16 16 15 15 15 14 15 15 15 15 16 16 16 17 17 17 17 17 17 17 17 17 17 17 17 17 17 17 17 17 17
15 15 15 16 16 16 16 16 16 16 16 16 16 16 15 15 15 14 14 14 15 15 16 16 16 16 16 17 17 17 17 17 17 17 17 17 16 16 17 17 17 17 17
14 14 14 14 14 15 15 15 15 15 16 16 16 16 15 15 15 14 14 14 14 15 15 15 15 16 16 16 16 17 17 17 17 17 17 16 16 16 16 16 16 16 17
13 13 13 13 13 14 14 14 14 15 15 15 15 15 15 15 15 14 14 13 13 13 14 15 15 15 15 15 16 16 16 16 16 16 16 16 16 16 16 16 16 16 16
12 12 12 12 12 13 13 13 13 14 14 14 15 15 15 15 15 14 14 13 13 13 13 14 14 14 14 15 15 15 15 16 16 16 16 16 16 16 16 16 16 16 16
11 11 11 11 11 11 12 12 12 13 13 13 14 14 14 15 14 14 14 13 13 13 13 13 13 13 14 14 14 14 14 15 15 15 15 15 15 15 15 15 15 15 15
11 11 11 11 11 11 11 11 12 12 12 13 13 13 14 14 14 14 14 13 13 13 13 13 13 13 13 13 13 13 13 14 14 14 14 14 14 15 15 15 14 14 14
11 11 10 10 10 10 10 10 11 11 11 12 12 13 13 13 14 14 14 13 13 13 13 13 13 13 13 13 13 12 12 12 13 13 13 13 14 14 14 14 14 14 14
11 10 10 10 10 10 10 10 10 10 11 11 11 12 12 13 13 13 13 13 13 13 13 12 13 13 12 12 12 12 12 12 12 12 12 12 13 13 13 13 13 13 13
11 10 10 10 10 10 9 9 9 9 10 10 11 11 11 12 12 13 13 13 13 13 13 12 12 12 12 12 12 12 12 12 12 12 12 12 12 12 12 12 13 13 13
10 10 10 10 10 9 9 9 9 9 9 9 10 10 11 11 12 12 13 13 13 13 13 12 12 12 12 12 12 12 12 11 11 11 11 11 11 12 12 12 12 12 12
9 10 10 10 9 9 9 9 9 9 9 9 9 9 10 10 11 12 12 12 13 13 13 13 12 12 12 12 12 12 12 11 10 10 11 11 11 11 11 11 11 11 11
8 9 9 9 9 9 9 9 9 9 9 8 9 9 9 10 11 11 12 12 12 13 13 13 13 13 13 12 12 12 11 11 11 11 11 10 10 10 10 10 10 10 11
7 7 8 8 9 9 9 9 9 9 8 8 8 8 9 9 10 11 11 12 12 12 13 12 12 13 13 13 13 12 12 11 11 10 10 10 10 10 10 10 9 9 9
6 6 7 7 8 8 8 9 9 8 8 8 8 8 8 9 9 10 10 11 11 12 12 12 12 12 12 12 12 11 11 11 10 9 10 10 9 9 9 9 9 8 8
5 6 6 6 7 7 8 8 8 8 8 8 8 8 8 8 9 9 10 11 11 12 12 12 12 12 12 12 11 12 12 11 10 9 9 10 9 9 8 8 8 8 8
Wind_Speed
9 7 7 9 10 11 9 7 6 7 7 8 9 9 9 10 11 11 11 15 17 17 17 16 16 17 17 20 22 22 24 26 26 26 25 24 23 23 22 21 21 20 20
8 9 8 7 8 10 9 7 4 5 5 4 6 6 7 8 9 10 11 13 16 17 17 17 16 16 17 19 20 21 22 24 26 26 26 25 25 24 24 23 23 22 21
10 8 7 7 7 9 8 5 4 3 3 3 4 5 5 6 7 8 10 10 12 14 16 16 17 17 18 18 19 19 20 22 24 26 26 26 26 25 25 25 25 24 24
13 8 8 8 7 6 4 4 3 3 3 3 3 3 4 4 6 7 8 9 10 11 13 16 16 17 18 19 19 19 19 19 20 22 24 25 26 26 26 26 26 26 25
11 8 8 7 6 4 4 4 3 3 3 3 3 4 4 4 5 6 7 8 9 10 11 13 16 17 18 19 20 19 19 18 18 19 20 22 24 25 26 26 26 26 26
8 7 6 6 5 4 4 4 3 2 2 3 3 3 3 4 4 5 6 5 6 8 9 10 11 12 16 19 19 20 19 19 19 20 20 20 22 23 25 26 26 27 27
5 5 6 6 6 6 6 6 4 3 3 2 1 2 2 2 3 3 3 2 3 4 6 7 8 9 10 14 17 19 19 20 20 20 19 20 20 21 22 24 26 26 26
4 5 6 6 6 5 5 6 4 3 2 3 3 1 2 3 2 1 1 1 1 2 3 5 6 8 9 9 12 16 18 20 21 20 20 21 21 20 20 21 24 25 25
4 4 6 6 6 6 7 7 6 6 5 3 2 3 2 2 2 2 2 2 3 3 4 4 5 6 7 8 9 12 16 18 21 22 22 21 20 20 20 20 20 22 24
3 2 3 4 5 5 6 6 7 5 5 4 2 2 2 3 2 2 2 2 4 4 5 5 5 5 5 5 7 10 12 14 17 20 21 21 20 19 19 19 19 20 21
5 4 2 2 3 4 5 6 6 6 5 5 4 3 2 2 2 2 3 3 3 4 5 5 4 4 4 4 4 5 8 11 13 14 16 17 19 18 19 19 19 18 19
3 5 4 2 3 4 5 6 7 8 7 6 5 5 4 3 4 4 4 3 3 3 4 4 3 3 4 4 4 3 3 6 8 9 10 12 14 15 15 15 15 15 15
1 3 3 3 3 4 5 6 7 8 9 8 8 6 6 5 4 4 3 3 3 3 3 2 2 2 3 4 4 4 2 3 5 7 8 9 9 9 9 10 9 8 9
3 3 2 2 3 4 4 5 6 7 7 9 10 8 6 7 6 5 4 3 2 2 2 2 1 2 3 4 5 6 5 6 7 8 9 10 9 9 9 8 7 6 4
5 5 4 3 3 3 3 3 4 7 7 8 9 9 7 6 6 6 5 5 4 2 2 2 1 2 3 4 5 6 6 9 10 11 13 13 12 12 11 11 10 9 7
6 6 6 5 5 4 4 3 3 4 6 7 7 8 8 6 6 6 7 6 6 5 3 2 1 0 2 3 6 7 9 12 12 13 14 14 14 13 13 12 12 11 11
8 8 7 7 6 6 5 4 4 4 4 5 6 8 9 7 7 6 7 7 7 6 6 3 1 1 2 4 5 7 8 9 10 14 15 15 15 14 14 14 14 14 13
10 10 9 8 8 7 6 6 6 4 4 4 4 6 7 7 8 7 7 8 7 8 7 6 3 2 2 6 6 7 6 8 9 13 14 14 14 14 15 15 15 15 15
11 11 10 10 10 9 8 7 7 6 6 5 5 5 6 7 8 7 8 8 7 7 7 5 4 3 2 5 6 6 8 7 8 11 14 14 14 15 15 15 16 16 17
12 12 12 12 11 10 9 8 8 7 7 6 6 6 6 7 8 9 8 9 8 8 7 6 5 4 4 5 6 6 6 5 6 7 11 12 14 16 15 15 16 17 18
13 12 12 12 11 10 10 10 9 8 8 7 6 5 6 8 10 9 7 8 9 8 8 7 6 5 5 7 7 5 7 7 6 5 7 7 8 9 11 13 15 16 18
11 11 12 12 12 11 13 15 12 9 8 7 7 6 6 8 9 11 13 12 12 10 10 9 8 8 9 8 7 10 9 7 4 3 5 6 5 7 7 9 13 16 18
11 11 12 12 12 13 16 16 15 10 9 8 8 6 5 6 6 7 9 12 13 14 13 11 11 11 11 12 12 12 10 6 5 7 6 5 5 7 7 10 14 16 18
10 10 11 11 11 13 16 16 15 11 9 9 9 8 7 7 6 7 7 8 9 10 12 11 11 11 11 13 14 12 12 9 8 5 3 5 4 5 6 9 12 15 16
10 10 8 10 11 12 15 16 14 7 8 9 9 8 8 7 9 9 8 8 8 7 8 11 11 11 14 16 16 14 13 13 8 4 2 4 5 5 5 5 9 12 14
11 10 10 9 10 11 13 15 13 7 7 7 6 7 8 8 9 10 9 9 9 8 7 8 9 12 15 18 20 17 16 15 11 5 4 5 7 6 4 3 4 6 9
Wind_Direction
233 231 233 236 239 242 243 242 239 238 236 236 235 236 239 242 244 245 250 257 259 254 248 244 237 233 233 232 229 227 224 218 213 211 210 210 210 210 210 209 209 208 207
229 230 231 231 235 236 237 237 238 234 234 230 237 235 239 244 247 249 251 259 262 258 254 250 243 237 237 237 234 231 227 222 216 213 212 212 212 212 212 212 212 211 211
231 230 231 234 233 230 229 228 228 219 223 225 237 242 242 243 248 252 255 255 259 261 258 253 248 244 243 242 239 234 227 224 220 216 214 213 213 214 215 214 214 214 213
229 225 227 230 223 214 208 205 195 194 210 216 228 241 239 240 247 252 253 252 251 255 257 254 252 246 243 243 241 236 229 224 220 219 218 217 216 216 217 217 217 217 216
230 223 224 220 204 197 198 199 180 179 193 208 229 241 243 242 248 255 254 252 250 252 255 257 255 251 246 244 241 236 226 221 218 220 220 221 221 219 219 219 220 219 218
229 217 219 202 185 186 190 184 174 180 193 202 238 257 262 262 260 255 258 260 256 256 257 256 255 253 249 245 240 234 226 219 218 220 222 223 225 223 221 221 222 222 220
227 205 214 197 186 190 191 182 169 178 194 176 183 294 302 276 261 247 254 257 266 271 268 262 255 250 249 244 239 233 227 221 219 217 217 218 221 224 224 223 223 223 222
243 216 211 203 193 186 183 183 171 165 181 179 169 153 330 334 330 351 310 269 304 311 302 291 270 254 247 241 238 231 225 221 220 220 218 217 217 218 221 223 223 223 221
251 232 215 207 200 191 193 193 183 173 182 196 191 163 170 228 297 318 319 321 322 313 308 304 293 275 257 244 241 235 226 220 217 218 218 217 216 214 218 223 225 224 222
347 298 242 217 208 205 204 201 194 183 168 183 200 207 192 171 188 301 313 314 313 303 306 310 308 298 285 262 244 235 228 222 217 217 216 213 213 215 216 219 224 228 225
6 3 328 260 238 227 219 208 196 195 188 180 180 175 186 201 197 215 272 307 314 297 299 307 311 314 313 293 265 243 230 221 214 215 215 210 209 211 216 218 223 228 228
355 5 357 331 277 253 236 223 210 204 202 196 192 185 177 177 189 199 231 265 294 294 303 306 320 332 338 332 309 274 226 208 202 201 203 202 205 205 207 209 219 224 224
310 333 351 332 300 270 256 236 219 217 208 206 204 203 202 202 182 182 207 244 268 288 304 314 335 357 9 9 1 11 41 155 171 168 167 172 179 181 187 195 202 211 217
242 251 274 295 307 300 280 251 234 225 215 214 214 206 206 211 198 190 191 198 254 277 277 280 342 23 38 33 40 51 68 95 117 127 129 131 132 133 138 141 142 145 150
244 242 244 255 272 290 296 278 246 236 223 218 216 211 211 211 204 205 199 191 197 243 272 259 272 44 56 52 58 69 79 91 99 106 109 111 113 114 116 119 120 119 120
238 242 248 247 251 258 265 280 273 249 232 226 217 212 214 210 205 203 202 201 202 210 238 247 221 72 72 79 81 86 90 91 93 99 101 104 106 108 108 105 104 105 104
236 235 238 242 245 245 241 239 254 265 250 240 228 217 217 206 204 203 199 198 202 205 228 240 210 152 123 119 102 94 91 88 91 94 96 97 98 99 98 98 97 95 93
234 232 232 234 240 243 236 231 234 239 243 251 248 232 226 214 209 204 199 202 203 203 212 225 207 175 146 140 122 107 95 90 89 92 94 95 95 96 97 97 96 94 91
234 231 224 227 232 235 235 234 233 229 227 230 241 245 239 222 217 208 203 204 204 203 205 208 200 175 144 141 126 110 103 95 91 91 88 88 92 94 94 95 95 94 93
234 232 227 225 227 228 230 233 232 232 227 225 228 237 242 233 226 215 208 206 199 197 200 202 196 177 157 147 139 133 120 106 97 91 86 86 89 89 91 94 96 97 96
240 232 229 228 226 224 228 226 226 227 225 227 228 234 244 245 238 221 209 203 195 195 195 200 195 181 170 163 156 142 133 117 89 97 97 82 84 83 84 89 95 99 99
243 231 227 226 225 227 224 218 214 219 220 223 232 237 246 251 246 230 217 205 195 193 196 197 196 190 180 166 152 148 143 139 127 133 106 85 80 81 79 90 100 104 103
252 239 230 225 223 225 223 222 219 213 217 221 226 234 248 246 243 237 222 211 207 205 199 197 196 192 179 169 160 158 159 144 130 147 123 98 84 81 77 91 102 105 106
258 249 238 228 225 227 222 223 224 216 217 223 224 226 236 249 241 226 216 209 211 211 208 207 205 194 180 169 165 157 143 116 105 118 112 111 108 93 83 85 97 104 107
259 254 245 231 224 228 221 219 217 207 216 227 229 227 231 243 242 224 211 210 212 215 210 204 196 180 162 157 151 142 142 140 137 137 114 115 129 111 94 85 85 100 107
255 253 245 234 224 225 223 218 208 200 212 224 230 231 232 239 241 221 211 205 209 204 183 177 173 164 161 159 157 159 158 155 147 145 159 130 148 136 115 103 102 107 109
Height
1524 1526 1526 1528 1528 1529 1530 1530 1530 1531 1531 1532 1532 1532 1533 1533 1534 1534 1535 1536 1537 1538 1538 1539 1540 1542 1544 1545 1547 1548 1550 1552 1554 1557 1559 1562 1564 1567 1569 1571 1573 1575 1577
1520 1521 1522 1523 1524 1525 1525 1526 1526 1526 1527 1527 1528 1528 1528 1529 1529 1530 1530 1531 1532 1533 1534 1534 1536 1538 1539 1541 1542 1544 1546 1548 1550 1552 1555 1557 1560 1563 1565 1568 1570 1572 1574
1515 1517 1517 1518 1519 1520 1521 1521 1521 1522 1522 1523 1523 1523 1524 1524 1524 1525 1525 1526 1527 1528 1528 1529 1531 1532 1534 1536 1537 1539 1541 1543 1545 1548 1550 1553 1556 1559 1561 1564 1566 1569 1571
1509 1512 1513 1513 1515 1516 1516 1516 1517 1517 1518 1518 1519 1519 1519 1519 1519 1520 1520 1520 1521 1522 1523 1524 1525 1526 1528 1530 1532 1534 1536 1537 1540 1542 1545 1548 1551 1554 1557 1560 1562 1565 1567
1504 1506 1508 1509 1511 1511 1512 1513 1513 1513 1514 1514 1514 1514 1514 1514 1514 1515 1515 1515 1515 1516 1517 1518 1519 1520 1522 1524 1526 1528 1530 1532 1534 1537 1540 1543 1546 1549 1552 1555 1558 1560 1563
1499 1501 1504 1505 1506 1507 1508 1509 1509 1510 1510 1510 1510 1510 1510 1509 1509 1509 1509 1510 1510 1511 1511 1512 1513 1514 1516 1517 1520 1522 1524 1527 1529 1532 1535 1537 1540 1543 1546 1549 1552 1555 1558
1495 1498 1501 1502 1503 1504 1505 1505 1506 1506 1506 1506 1507 1506 1505 1504 1504 1504 1505 1505 1506 1506 1507 1507 1508 1509 1510 1512 1514 1516 1519 1521 1524 1527 1529 1532 1535 1538 1541 1544 1547 1550 1553
1492 1495 1497 1498 1500 1501 1501 1502 1502 1502 1502 1503 1503 1503 1502 1502 1501 1501 1501 1502 1502 1502 1503 1503 1503 1504 1506 1507 1509 1511 1513 1516 1518 1521 1524 1526 1529 1532 1535 1538 1541 1544 1547
1488 1491 1493 1494 1496 1497 1498 1498 1498 1499 1499 1500 1500 1500 1499 1498 1498 1498 1498 1499 1499 1499 1499 1499 1499 1500 1501 1502 1504 1506 1508 1511 1513 1515 1518 1521 1523 1526 1529 1532 1535 1538 1541
1485 1486 1488 1490 1491 1493 1494 1494 1495 1495 1496 1496 1496 1496 1496 1496 1496 1495 1496 1496 1496 1496 1495 1495 1495 1496 1497 1498 1499 1501 1504 1506 1508 1510 1512 1515 1517 1520 1523 1526 1529 1533 1536
1480 1481 1482 1484 1485 1487 1488 1489 1490 1491 1492 1492 1493 1492 1493 1493 1493 1493 1492 1492 1492 1492 1492 1491 1491 1492 1493 1494 1496 1497 1499 1502 1504 1505 1507 1509 1512 1514 1517 1520 1524 1527 1530
1477 1477 1477 1478 1479 1480 1482 1484 1485 1486 1487 1488 1489 1489 1489 1489 1489 1490 1489 1489 1488 1489 1488 1488 1488 1488 1489 1490 1492 1493 1495 1497 1499 1501 1502 1504 1507 1509 1511 1514 1518 1521 1524
1472 1472 1472 1472 1473 1474 1475 1477 1478 1480 1481 1483 1484 1485 1485 1485 1486 1486 1487 1486 1485 1485 1485 1485 1485 1485 1486 1487 1488 1490 1491 1493 1495 1497 1498 1500 1502 1504 1507 1509 1513 1515 1518
1468 1467 1467 1467 1467 1467 1468 1469 1471 1473 1475 1476 1478 1479 1480 1481 1482 1482 1483 1484 1483 1483 1482 1482 1483 1483 1484 1484 1485 1487 1488 1490 1492 1493 1495 1496 1498 1500 1503 1505 1508 1510 1512
1463 1462 1461 1461 1461 1461 1461 1461 1463 1465 1467 1469 1471 1473 1475 1476 1477 1478 1479 1480 1481 1481 1480 1480 1481 1481 1482 1483 1483 1485 1486 1487 1489 1490 1492 1493 1495 1497 1499 1501 1503 1505 1507
1458 1457 1456 1455 1455 1455 1455 1455 1456 1457 1459 1461 1463 1466 1468 1470 1472 1473 1475 1476 1477 1478 1478 1478 1478 1479 1480 1481 1482 1483 1484 1485 1487 1488 1490 1491 1493 1495 1496 1498 1500 1502 1503
1452 1451 1451 1450 1449 1449 1449 1449 1449 1450 1452 1454 1456 1458 1461 1464 1466 1468 1470 1471 1472 1474 1474 1475 1476 1477 1478 1479 1481 1482 1483 1484 1486 1487 1488 1490 1491 1493 1494 1496 1497 1499 1500
1445 1445 1444 1444 1443 1443 1442 1442 1442 1443 1445 1446 1449 1451 1454 1457 1459 1462 1464 1466 1467 1469 1470 1471 1473 1474 1476 1478 1479 1481 1482 1483 1485 1486 1488 1489 1491 1492 1493 1495 1496 1498 1499
1436 1436 1436 1437 1437 1437 1437 1437 1436 1437 1438 1439 1441 1444 1447 1449 1452 1455 1457 1460 1462 1464 1465 1467 1469 1471 1473 1475 1477 1479 1481 1483 1485 1486 1487 1489 1490 1492 1493 1494 1495 1497 1498
1425 1426 1427 1428 1429 1430 1431 1431 1431 1431 1432 1433 1434 1437 1439 1442 1445 1448 1450 1453 1456 1458 1460 1462 1465 1467 1470 1472 1475 1477 1480 1482 1484 1486 1487 1489 1490 1492 1493 1494 1495 1497 1498
1415 1416 1417 1419 1420 1422 1423 1424 1426 1426 1427 1427 1428 1430 1432 1435 1438 1441 1443 1447 1450 1452 1454 1457 1460 1463 1465 1468 1471 1474 1477 1480 1483 1485 1487 1489 1491 1492 1493 1495 1496 1497 1498
1404 1405 1406 1409 1411 1413 1415 1417 1419 1420 1421 1422 1423 1424 1426 1428 1431 1433 1437 1440 1443 1446 1448 1451 1454 1457 1460 1464 1468 1471 1475 1478 1481 1485 1487 1489 1491 1493 1494 1496 1497 1498 1499
1393 1394 1396 1398 1401 1404 1407 1410 1412 1414 1415 1417 1418 1419 1420 1422 1424 1427 1430 1433 1436 1439 1442 1445 1448 1451 1455 1459 1463 1468 1472 1476 1478 1482 1487 1489 1492 1493 1495 1497 1498 1500 1501
1382 1383 1386 1388 1391 1395 1399 1402 1405 1407 1409 1410 1412 1413 1415 1416 1418 1421 1423 1426 1430 1433 1436 1439 1443 1447 1451 1455 1460 1464 1469 1474 1479 1482 1486 1488 1492 1494 1496 1498 1500 1501 1502
1372 1373 1375 1379 1382 1386 1390 1394 1397 1399 1402 1404 1406 1408 1409 1410 1412 1415 1417 1420 1423 1427 1430 1434 1438 1442 1447 1451 1456 1461 1466 1470 1475 1480 1485 1487 1491 1494 1497 1499 1501 1503 1504
1363 1364 1366 1369 1373 1377 1382 1386 1390 1392 1395 1398 1400 1402 1403 1405 1406 1408 1411 1414 1417 1421 1425 1429 1433 1437 1442 1446 1451 1457 1461 1466 1471 1478 1483 1486 1489 1493 1497 1500 1501 1503 1505